| time (UTC) | temp F | wind direction | speed MPH | gust MPH | rain 1hr in | rain 24hr in | rain mn in | humidity % | barometer mb |
| 20260510043018 | 59 | 0.0 | 0.0 | 0.00 | 0.01 | 0.00 | 19 | 1010.3 | |
| 20260510040037 | 59 | 0.0 | 0.0 | 0.00 | 0.01 | 0.00 | 32 | 1010.2 | |
| 20260510033017 | 60 | 0.0 | 0.0 | 0.00 | 0.01 | 0.00 | 46 | 1010.1 | |
| 20260510030037 | 61 | 0.0 | 0.0 | 0.00 | 0.01 | 0.00 | 57 | 1010.0 | |
| 20260510023017 | 62 | 0.0 | 1.0 | 0.00 | 0.01 | 0.00 | 62 | 1009.8 | |
| 20260510020018 | 63 | 0.0 | 0.0 | 0.00 | 0.01 | 0.00 | 64 | 1009.6 | |
| 20260510013017 | 64 | 0.0 | 1.0 | 0.00 | 0.01 | 0.00 | 68 | 1009.4 | |
| 20260510010037 | 65 | 0.0 | 1.0 | 0.00 | 0.01 | 0.00 | 69 | 1008.8 | |
| 20260510003017 | 66 | 0.0 | 0.0 | 0.00 | 0.01 | 0.00 | 70 | 1008.9 | |
| 20260510000017 | 68 | 0.0 | 0.0 | 0.00 | 0.01 | 0.01 | 65 | 1008.5 | |
| 20260509233017 | 70 | 0.0 | 0.0 | 0.00 | 0.01 | 0.01 | 62 | 1008.3 | |
| 20260509230037 | 71 | 0.0 | 2.0 | 0.00 | 0.01 | 0.01 | 59 | 1008.2 | |
| 20260509223018 | 72 | 0.0 | 1.0 | 0.00 | 0.01 | 0.01 | 55 | 1008.2 | |
| 20260509220017 | 72 | 0.0 | 1.0 | 0.00 | 0.01 | 0.01 | 54 | 1008.3 | |
| 20260509213017 | 74 | 0.0 | 3.0 | 0.00 | 0.01 | 0.01 | 52 | 1008.3 | |
| 20260509210037 | 74 | 0.0 | 4.0 | 0.00 | 0.01 | 0.01 | 52 | 1008.3 | |
| 20260509203017 | 73 | 0.0 | 4.0 | 0.00 | 0.01 | 0.01 | 56 | 1008.1 | |
| 20260509200036 | 71 | 0.0 | 3.0 | 0.00 | 0.01 | 0.01 | 60 | 1008.5 | |
| 20260509193016 | 68 | 0.0 | 2.0 | 0.00 | 0.01 | 0.01 | 66 | 1009.1 | |
| 20260509190017 | 66 | 0.0 | 1.0 | 0.01 | 0.01 | 0.01 | 62 | 1009.3 | |
| 20260509183017 | 64 | 0.0 | 1.0 | 0.01 | 0.01 | 0.01 | 39 | 1009.2 | |
| 20260509180016 | 68 | 0.0 | 2.0 | 0.00 | 0.00 | 0.00 | 63 | 1010.0 | |
| 20260509173037 | 69 | 0.0 | 1.0 | 0.00 | 0.00 | 0.00 | 61 | 1010.2 | |
| 20260509170016 | 67 | 0.0 | 2.0 | 0.00 | 0.00 | 0.00 | 63 | 1010.3 | |
| 20260509163016 | 66 | 0.0 | 3.0 | 0.00 | 0.00 | 0.00 | 62 | 1010.4 | |
| 20260509160016 | 66 | 0.0 | 4.0 | 0.00 | 0.00 | 0.00 | 63 | 1010.6 | |
| 20260509153016 | 66 | 0.0 | 3.0 | 0.00 | 0.00 | 0.00 | 61 | 1010.8 | |
| 20260509150036 | 64 | 0.0 | 2.0 | 0.00 | 0.00 | 0.00 | 64 | 1011.1 | |
| 20260509143016 | 61 | 0.0 | 3.0 | 0.00 | 0.00 | 0.00 | 68 | 1011.5 | |
| 20260509140015 | 61 | 0.0 | 3.0 | 0.00 | 0.00 | 0.00 | 67 | 1011.3 | |
| 20260509133016 | 60 | 0.0 | 3.0 | 0.00 | 0.00 | 0.00 | 67 | 1011.6 | |
| 20260509130018 | 60 | 0.0 | 6.0 | 0.00 | 0.00 | 0.00 | 65 | 1011.6 | |
| 20260509123017 | 60 | 0.0 | 2.0 | 0.00 | 0.00 | 0.00 | 65 | 1011.3 | |
| 20260509120017 | 59 | 0.0 | 2.0 | 0.00 | 0.00 | 0.00 | 64 | 1011.3 | |
| 20260509113037 | 59 | 0.0 | 1.0 | 0.00 | 0.00 | 0.00 | 62 | 1011.3 | |
| 20260509110018 | 58 | 0.0 | 1.0 | 0.00 | 0.00 | 0.00 | 59 | 1011.2 | |
| 20260509103017 | 58 | 0.0 | 0.0 | 0.00 | 0.00 | 0.00 | 58 | 1010.9 | |
| 20260509100017 | 58 | 0.0 | 0.0 | 0.00 | 0.00 | 0.00 | 57 | 1010.8 | |
| 20260509093017 | 58 | 0.0 | 1.0 | 0.00 | 0.00 | 0.00 | 57 | 1010.9 | |
| 20260509090017 | 58 | 0.0 | 1.0 | 0.00 | 0.00 | 0.00 | 58 | 1011.0 | |
| 20260509083018 | 58 | 0.0 | 2.0 | 0.00 | 0.00 | 0.00 | 60 | 1011.5 | |
| 20260509080017 | 58 | 0.0 | 3.0 | 0.00 | 0.00 | 0.00 | 60 | 1011.7 | |
| 20260509073017 | 58 | 0.0 | 3.0 | 0.00 | 0.00 | 0.00 | 60 | 1011.8 | |
| 20260509070017 | 58 | 0.0 | 3.0 | 0.00 | 0.00 | 0.00 | 59 | 1011.8 | |
| 20260509063017 | 58 | 0.0 | 1.0 | 0.00 | 0.00 | 0.00 | 59 | 1012.1 | |
| 20260509060017 | 58 | 0.0 | 1.0 | 0.00 | 0.00 | 0.00 | 58 | 1012.1 | |
| 20260509053017 | 58 | 0.0 | 1.0 | 0.00 | 0.00 | 0.00 | 58 | 1012.3 | |
| 20260509050017 | 58 | 0.0 | 2.0 | 0.00 | 0.00 | 0.00 | 57 | 1012.3 |